Location: Trois-Rivi�res
(46.3500°N, 72.5500°W)
Time: 08:26:51
(UTC-04:00)

ISS - Pass Details

Date: 13 October 2017
Orbit: 401 x 408 km, 51.6° (Epoch: 19 October)

Event Time Altitude Azimuth Distance (km) Brightness Sun altitude
Rises 20:18:19 0° 285° (WNW) 2,326 1.5 -23.4°
Reaches altitude 10° 20:21:06 10° 260° (W) 1,463 -0.1 -23.8°
Maximum altitude 20:22:56 14° 226° (SW) 1,233 -1.1 -24.1°
Enters shadow 20:23:18 14° 218° (SW) 1,242 -1.1 -24.2°
